Latest Coastal Weather Observations for King Island Airport

IDV60701

Issued at 3:15 am EDT Saturday 25 October 2014 (issued every 10 minutes, with the page automatically refreshed every 10 minutes)

About coastal observations | Map of coastal stations | Coastal observations for VIC | Marine services | Other Formats
Station Details ID: 098017 Name: KING ISLAND AIRPORT Lat: -39.88 Lon: 143.88 Height: 37.0 m
Data from the previous 72 hours. | See also: Recent months at King Island Airport
Date/Time
EDT
Temp

°C
Wind Pressure Rain
since 9am
mm
Weather Cloud Vis
km
Sea
Height
m
Swell
Dir
 
Speed
knots
Gust
knots
hPa Trend Height
m
Period
s
Dir
25/03:00am 12.9 WSW 11 17 1015.3 - 0.0 - Cloudy 10 - - - -
25/02:30am 13.2 SW 14 18 1015.2 - 0.0 - Partly cloudy 10 - - - -
25/02:00am 13.5 SW 13 19 1015.3 - 0.0 - Cloudy 10 - - - -
25/01:30am 13.4 WSW 13 17 1015.4 - 0.0 - Cloudy 10 - - - -
25/01:00am 13.3 WSW 14 19 1015.6 - 0.0 - Cloudy 10 - - - -
25/12:30am 13.5 WSW 14 19 1015.5 - 0.0 - Cloudy 10 - - - -
25/12:00am 13.2 WSW 15 20 1015.3 - 0.0 - Cloudy 10 - - - -
 
Date/Time
EDT
Temp

°C
Wind Pressure Rain
since 9am
mm
Weather Cloud Vis
km
Sea
Height
m
Swell
Dir
 
Speed
knots
Gust
knots
hPa Trend Height
m
Period
s
Dir
24/11:30pm 13.6 WSW 14 18 1015.1 - 0.0 - Cloudy 10 - - - -
24/11:00pm 13.5 WSW 14 19 1014.9 - 0.0 - Cloudy 10 - - - -
24/10:30pm 13.7 W 10 14 1014.5 - 0.0 - Partly cloudy 10 - - - -
24/10:00pm 13.7 W 13 17 1014.5 - 0.0 - Partly cloudy 10 - - - -
24/09:30pm 13.7 W 11 17 1013.9 - 0.0 - Partly cloudy 10 - - - -
24/09:29pm 13.7 W 11 17 1013.9 - 0.0 - Partly cloudy 10 - - - -
24/09:12pm 13.8 W 11 16 1013.9 - 0.0 - Partly cloudy 10 - - - -
24/09:00pm 13.9 W 12 17 1013.8 - 0.0 - Cloudy 10 - - - -
24/08:31pm 14.0 W 13 18 1013.4 - 0.0 - Partly cloudy 10 - - - -
24/08:30pm 14.0 W 13 18 1013.4 - 0.0 - Partly cloudy 10 - - - -
24/08:00pm 14.0 W 13 19 1012.9 - 0.0 - Partly cloudy 9 - - - -
24/07:30pm 14.3 W 13 18 1012.3 - 0.0 - Partly cloudy 8 - - - -
24/07:00pm 14.6 W 12 17 1011.9 - 0.0 - Cloudy 7 - - - -
24/06:30pm 15.0 W 13 18 1011.6 - 0.0 - Cloudy 6 - - - -
24/06:00pm 15.2 W 14 19 1011.4 - 0.0 - Mostly cloudy 6 - - - -
24/05:53pm 15.1 WNW 14 19 1011.4 - 0.0 - Cloudy 6 - - - -
24/05:32pm 15.2 WNW 14 19 1011.2 - 0.0 - Partly cloudy 5 - - - -
24/05:30pm 15.2 WNW 14 19 1011.2 - 0.0 - Partly cloudy 6 - - - -
24/05:00pm 15.5 WNW 16 19 1010.9 - 0.0 - Cloudy 8 - - - -
24/04:30pm 16.1 NW 16 19 1010.8 - 0.0 - Cloudy 10 - - - -
24/04:00pm 17.0 NW 12 15 1010.1 - 0.0 - Partly cloudy 10 - - - -
24/03:30pm 16.7 NW 12 15 1010.4 - 0.0 - Cloudy 10 - - - -
24/03:00pm 16.7 WNW 11 15 1010.7 - 0.0 - Cloudy 10 - - - -
24/02:30pm 16.2 NW 13 16 1011.0 - 0.0 - Partly cloudy 10 - - - -
24/02:12pm 16.0 NW 15 18 1011.2 - 0.0 - Partly cloudy 10 - - - -
24/02:00pm 16.6 NNW 11 15 1011.0 - 0.0 - Partly cloudy 10 - - - -
24/01:30pm 17.4 N 15 17 1011.2 - 0.0 - Partly cloudy 10 - - - -
24/01:21pm 17.0 N 15 17 1011.0 - 0.0 - Partly cloudy 10 - - - -
24/01:00pm 16.5 N 11 15 1011.3 - 0.0 - Cloudy 9 - - - -
24/12:30pm 16.4 NE 13 16 1011.3 - 0.0 - Cloudy 8 - - - -
24/12:00pm 16.1 ENE 14 18 1011.2 - 0.0 - Mostly cloudy 6 - - - -
24/11:39am 15.8 ENE 16 21 1011.4 - 0.0 - Cloudy 6 - - - -
24/11:30am 15.8 ENE 16 21 1011.5 - 0.0 - Cloudy 6 - - - -
24/11:00am 15.6 ENE 17 22 1011.8 - 0.0 - Cloudy 5 - - - -
24/10:30am 15.4 ENE 17 23 1012.1 - 0.0 - Cloudy 3 - - - -
24/10:00am 15.1 ENE 17 21 1012.5 - 0.0 - Cloudy 2 - - - -
24/09:30am 14.7 E 16 21 1012.5 - 0.0 - Cloudy 2 - - - -
24/09:10am 14.3 ENE 17 27 1012.7 - 0.0 - Cloudy 3 - - - -
24/09:00am 14.2 E 19 26 1012.5 - 0.0 - Cloudy 2 - - - -
24/08:36am 14.1 E 20 30 1012.5 - 0.0 - Cloudy 3 - - - -
24/08:30am 14.0 E 21 30 1012.6 - 0.0 - Cloudy 3 - - - -
24/08:00am 13.8 E 21 28 1013.0 - 0.0 - Cloudy 4 - - - -
24/07:31am 13.7 E 22 32 1012.9 - 0.0 - Cloudy 5 - - - -
24/07:30am 13.8 E 21 29 1012.9 - 0.0 - Cloudy 5 - - - -
24/07:19am 13.7 E 22 32 1012.9 - 0.0 - Cloudy 4 - - - -
24/07:00am 13.5 E 23 32 1013.0 - 0.0 - Cloudy 4 - - - -
24/06:47am 13.5 E 23 34 1013.1 - 0.0 - Cloudy 3 - - - -
24/06:30am 13.4 E 24 32 1013.3 - 0.0 - Cloudy 3 - - - -
24/06:00am 13.3 E 24 31 1013.4 - 0.0 - Cloudy 2 - - - -
24/05:30am 13.4 E 25 35 1013.6 - 0.0 - Cloudy 4 - - - -
24/05:23am 13.4 E 25 35 1013.7 - 0.0 - Cloudy 4 - - - -
24/05:09am 13.5 E 25 33 1013.9 - 0.0 - Cloudy 5 - - - -
24/05:00am 13.5 E 25 35 1013.9 - 0.0 - Cloudy 7 - - - -
24/04:30am 13.6 E 24 34 1014.3 - 0.0 - Cloudy 9 - - - -
24/04:14am 13.6 E 23 34 1014.6 - 0.0 - Cloudy 9 - - - -
24/04:00am 13.5 E 23 31 1014.7 - 0.0 - Cloudy 10 - - - -
24/03:30am 13.5 E 24 34 1015.1 - 0.0 - Cloudy 10 - - - -
24/03:18am 13.5 E 24 39 1015.2 - 0.0 - Cloudy 10 - - - -
24/03:00am 13.5 E 25 33 1015.5 - 0.0 - Cloudy 10 - - - -
24/02:32am 13.5 E 24 34 1015.6 - 0.0 - Cloudy 10 - - - -
24/02:30am 13.5 E 25 34 1015.6 - 0.0 - Cloudy 10 - - - -
24/02:02am 13.5 E 25 35 1016.4 - 0.0 - Cloudy 10 - - - -
24/02:00am 13.5 E 25 32 1016.4 - 0.0 - Cloudy 10 - - - -
24/01:30am 13.5 E 24 36 1016.9 - 0.0 - Cloudy 10 - - - -
24/01:02am 13.5 E 23 34 1017.4 - 0.0 - Cloudy 10 - - - -
24/01:00am 13.5 E 23 30 1017.4 - 0.0 - Cloudy 9 - - - -
24/12:46am 13.5 E 24 33 1017.4 - 0.0 - Cloudy 10 - - - -
24/12:41am 13.5 E 22 33 1017.4 - 0.0 - Cloudy 10 - - - -
24/12:30am 13.5 E 24 31 1017.5 - 0.0 - Cloudy 10 - - - -
24/12:00am 13.6 E 23 34 1017.8 - 0.0 - Cloudy 10 - - - -
 
Date/Time
EDT
Temp

°C
Wind Pressure Rain
since 9am
mm
Weather Cloud Vis
km
Sea
Height
m
Swell
Dir
 
Speed
knots
Gust
knots
hPa Trend Height
m
Period
s
Dir
23/11:45pm 13.5 E 22 32 1018.2 - 0.0 - Cloudy 10 - - - -
23/11:30pm 13.6 E 22 29 1018.3 - 0.0 - Cloudy 10 - - - -
23/11:11pm 13.6 E 21 31 1018.6 - 0.0 - Cloudy 10 - - - -
23/11:00pm 13.6 E 22 31 1018.8 - 0.0 - Cloudy 10 - - - -
23/10:51pm 13.5 E 21 31 1018.8 - 0.0 - Cloudy 10 - - - -
23/10:30pm 13.3 E 19 26 1019.1 - 0.0 - Partly cloudy 10 - - - -
23/10:00pm 13.1 E 19 28 1019.1 - 0.0 - - 10 - - - -
23/09:58pm 13.1 E 18 28 1019.1 - 0.0 - - 10 - - - -
23/09:30pm 13.1 E 20 27 1019.4 - 0.0 - - 10 - - - -
23/09:00pm 13.1 E 20 27 1019.2 - 0.0 - - 10 - - - -
23/08:31pm 13.1 E 20 30 1019.1 - 0.0 - Partly cloudy 10 - - - -
23/08:30pm 13.1 E 20 29 1019.1 - 0.0 - Partly cloudy 10 - - - -
23/08:04pm 13.0 E 17 27 1019.2 - 0.0 - Partly cloudy 10 - - - -
23/08:00pm 13.1 E 19 27 1019.2 - 0.0 - Partly cloudy 10 - - - -
23/07:47pm 13.2 E 19 30 1019.3 - 0.0 - Partly cloudy 10 - - - -
23/07:30pm 13.4 E 19 28 1019.3 - 0.0 - Partly cloudy 10 - - - -
23/07:12pm 13.6 E 20 30 1019.3 - 0.0 - Partly cloudy 10 - - - -
23/07:00pm 13.8 E 21 29 1019.2 - 0.0 - Partly cloudy 10 - - - -
23/06:30pm 14.2 E 22 30 1019.3 - 0.0 - Partly cloudy 10 - - - -
23/06:02pm 14.3 E 18 28 1019.5 - 0.0 - Cloudy 10 - - - -
23/06:00pm 14.4 E 20 28 1019.6 - 0.0 - Cloudy 10 - - - -
23/05:31pm 14.9 E 24 34 1019.7 - 0.0 - Partly cloudy 10 - - - -
23/05:30pm 14.9 E 25 34 1019.7 - 0.0 - Partly cloudy 10 - - - -
23/05:25pm 14.8 E 24 34 1019.7 - 0.0 - Partly cloudy 10 - - - -
23/05:00pm 15.5 E 23 31 1019.7 - 0.0 - Partly cloudy 10 - - - -
23/04:30pm 16.1 E 23 31 1019.4 - 0.0 - Partly cloudy 10 - - - -
23/04:04pm 16.0 E 22 32 1019.5 - 0.0 - Partly cloudy 10 - - - -
23/04:00pm 15.7 E 23 32 1019.6 - 0.0 - Partly cloudy 10 - - - -
23/03:53pm 15.7 E 22 32 1019.6 - 0.0 - Partly cloudy 10 - - - -
23/03:52pm 15.9 E 22 30 1019.6 - 0.0 - Partly cloudy 10 - - - -
23/03:30pm 15.7 E 25 32 1019.6 - 0.0 - Cloudy 10 - - - -
23/03:08pm 15.3 E 22 35 1019.6 - 0.0 - Cloudy 10 - - - -
23/03:00pm 15.4 E 22 29 1019.7 - 0.0 - Mostly cloudy 10 - - - -
23/02:41pm 14.9 E 23 33 1020.0 - 0.0 - Cloudy 9 - - - -
23/02:30pm 14.9 E 21 30 1020.0 - 0.0 - Cloudy 9 - - - -
23/02:22pm 14.4 E 21 31 1020.0 - 0.0 - Cloudy 8 - - - -
23/02:00pm 14.2 E 19 29 1020.3 - 0.0 - Cloudy 4 - - - -
23/01:34pm 14.2 E 22 29 1020.3 - 0.0 - Cloudy 5 - - - -
23/01:30pm 14.5 E 20 27 1020.3 - 0.0 - Cloudy 7 - - - -
23/01:09pm 15.0 E 22 32 1020.4 - 0.0 - Cloudy 8 - - - -
23/01:00pm 14.9 E 23 32 1020.3 - 0.0 - Cloudy 8 - - - -
23/12:59pm 14.8 E 23 32 1020.3 - 0.0 - Cloudy 8 - - - -
23/12:56pm 15.0 E 22 32 1020.3 - 0.0 - Cloudy 7 - - - -
23/12:32pm 14.9 E 23 29 1020.4 - 0.0 - Cloudy 5 - - - -
23/12:30pm 15.0 E 22 29 1020.4 - 0.0 - Cloudy 7 - - - -
23/12:00pm 14.9 E 21 28 1020.6 - 0.0 - Mostly cloudy 6 - - - -
23/11:43am 15.0 E 21 31 1020.6 - 0.0 - Cloudy 8 - - - -
23/11:30am 15.2 E 18 25 1020.8 - 0.0 - Cloudy 9 - - - -
23/11:00am 14.8 E 16 20 1020.9 - 0.0 - Partly cloudy 7 - - - -
23/10:30am 14.5 ESE 14 20 1021.0 - 0.0 - Partly cloudy 8 - - - -
23/10:00am 14.3 SE 14 19 1021.1 - 0.0 - Partly cloudy 10 - - - -
23/09:53am 14.6 SE 15 19 1021.2 - 0.0 - Partly cloudy 10 - - - -
23/09:30am 14.6 SE 14 18 1021.2 - 0.0 - Partly cloudy 10 - - - -
23/09:00am 14.0 SE 17 24 1021.1 - 0.0 - Partly cloudy 10 - - - -
23/08:32am 13.7 SSE 13 19 1021.2 - 0.0 - Partly cloudy 10 - - - -
23/08:30am 13.6 SSE 14 19 1021.2 - 0.0 - Partly cloudy 10 - - - -
23/08:00am 13.4 SSE 13 20 1020.8 - 0.0 - Partly cloudy 10 - - - -
23/07:30am 12.9 SSE 13 19 1020.3 - 0.0 - Cloudy 10 - - - -
23/07:00am 12.7 SSE 11 16 1020.0 - 0.0 - Cloudy 10 - - - -
23/06:30am 12.5 S 13 23 1019.6 - 0.0 - Cloudy 10 - - - -
23/06:00am 12.6 S 13 21 1019.8 - 0.0 - Cloudy 10 - - - -
23/05:30am 12.6 S 12 18 1019.7 - 0.0 - Cloudy 10 - - - -
23/05:00am 12.9 S 13 21 1019.8 - 0.0 - Cloudy 10 - - - -
23/04:30am 12.9 S 10 17 1019.7 - 0.0 - Cloudy 10 - - - -
23/04:00am 13.1 S 9 14 1019.6 - 0.0 - Cloudy 10 - - - -
23/03:30am 13.1 S 10 16 1019.5 - 0.0 - Cloudy 10 - - - -
23/03:00am 13.2 SSE 11 17 1019.6 - 0.0 - Cloudy 10 - - - -
23/02:30am 13.2 SSE 10 15 1019.5 - 0.0 - Cloudy 10 - - - -
23/02:00am 13.2 SSE 12 19 1019.4 - 0.0 - Cloudy 10 - - - -
23/01:30am 13.1 SSE 12 18 1019.5 - 0.0 - Cloudy 10 - - - -
23/01:00am 13.3 S 15 21 1019.1 - 0.0 - Cloudy 10 - - - -
23/12:30am 13.3 S 15 21 1018.8 - 0.0 - Cloudy 10 - - - -
23/12:00am 13.3 S 15 21 1018.8 - 0.0 - Mostly cloudy 10 - - - -
 
Date/Time
EDT
Temp

°C
Wind Pressure Rain
since 9am
mm
Weather Cloud Vis
km
Sea
Height
m
Swell
Dir
 
Speed
knots
Gust
knots
hPa Trend Height
m
Period
s
Dir
22/11:30pm 13.6 S 14 24 1019.1 - 0.0 - Cloudy 10 - - - -
22/11:00pm 13.7 S 11 17 1019.2 - 0.0 - Cloudy 10 - - - -
22/10:30pm 13.9 S 9 14 1019.2 - 0.0 - Cloudy 10 - - - -
22/10:00pm 14.2 S 11 19 1018.9 - 0.0 - Cloudy 10 - - - -
22/09:30pm 14.2 S 10 15 1018.5 - 0.0 - Cloudy 10 - - - -
22/09:00pm 14.3 S 13 18 1018.2 - 0.0 - Mostly cloudy 10 - - - -
22/08:30pm 14.3 S 12 20 1017.8 - 0.0 - Cloudy 9 - - - -
22/08:00pm 14.3 S 15 22 1017.4 - 0.0 - Cloudy 10 - - - -
22/07:45pm 14.5 SSW 15 22 1017.3 - 0.0 - Partly cloudy 10 - - - -
22/07:30pm 14.7 S 15 19 1017.1 - 0.0 - - 10 - - - -
22/07:00pm 15.6 SSW 17 24 1016.6 - 0.0 - - 10 - - - -
22/06:30pm 15.4 SW 11 16 1016.4 - 0.0 - - 10 - - - -
22/06:00pm 16.7 W 11 14 1016.1 - 0.0 - Partly cloudy 10 - - - -
22/05:30pm 18.4 WNW 8 9 1015.6 - 0.0 - - 10 - - - -
22/05:00pm 18.5 WNW 9 13 1015.7 - 0.0 - - 10 - - - -
22/04:30pm 19.4 WNW 11 15 1016.0 - 0.0 - - 10 - - - -
22/04:00pm 22.1 NW 10 13 1015.9 - 0.0 - - - - - - -
22/03:30pm 22.2 NNW 8 9 1015.9 - 0.0 - - - - - - -
22/03:00pm 22.5 NNW 7 10 1016.1 - 0.0 - Partly cloudy 10 - - - -
22/02:30pm 22.5 NNE 6 8 1016.1 - 0.0 - - 10 - - - -
22/02:00pm 21.5 ENE 7 9 1016.4 - 0.0 - - 10 - - - -
22/01:30pm 20.6 ENE 9 11 1016.3 - 0.0 - - 10 - - - -
22/01:00pm 20.0 ENE 12 16 1016.5 - 0.0 - - 10 - - - -
22/12:30pm 20.3 E 10 15 1016.9 - 0.0 - - 10 - - - -
22/12:00pm 20.4 ENE 13 16 1017.4 - 0.0 - - - - - - -
22/11:30am 19.3 ENE 13 16 1018.0 - 0.0 - - - - - - -
22/11:00am 18.6 E 15 18 1018.0 - 0.0 - - - - - - -
22/10:30am 18.2 ENE 13 18 1018.4 - 0.0 - - 10 - - - -
22/10:00am 17.0 ENE 15 19 1018.4 - 0.0 - - 10 - - - -
22/09:30am 16.6 E 15 19 1018.8 - 0.0 - - 10 - - - -
22/09:00am 15.4 E 15 19 1018.8 - 0.0 - - 10 - - - -
22/08:30am 14.9 E 14 18 1019.3 - 0.0 - Partly cloudy 10 - - - -
22/08:00am 14.0 E 17 21 1019.2 - 0.0 - - 10 - - - -
22/07:30am 13.4 E 16 21 1019.1 - 0.0 - Partly cloudy - - - - -
22/07:00am 13.0 E 17 21 1019.1 - 0.0 - - - - - - -
22/06:30am 12.8 E 17 21 1018.9 - 0.0 - - - - - - -
22/06:00am 12.8 E 16 19 1018.9 - 0.0 - Mostly clear - - - - -
22/05:30am 12.9 E 17 23 1018.5 - 0.0 - - - - - - -
22/05:00am 12.7 E 17 21 1018.9 - 0.0 - - - - - - -
22/04:30am 12.7 E 17 21 1019.2 - 0.0 - - - - - - -
22/04:00am 12.8 E 16 20 1019.5 - 0.0 - - - - - - -
22/03:30am 12.6 E 17 22 1019.6 - 0.0 - - - - - - -

Other Formats:

Comma delimited format used in spreadsheet applications
http://www.bom.gov.au/fwo/IDV60701/IDV60701.94850.axf

JavaScript Object Notation format (JSON) in row-major order
http://www.bom.gov.au/fwo/IDV60701/IDV60701.94850.json